Regional Weather Roundup
Issued by NWS

Home | Current Version | Previous Version | Graphics & Text | Print | Product List | Glossary On
Versions: 1 2 3 4 5 6 7 8 9 10 11 12 13 14 15 16 17 18 19 20 21 22 23 24 25 26 27 28 29 30 31 32 33 34 35 36 37 38 39 40 41 42 43 44 45 46 47 48 49 50
000
ASUS45 KSLC 221210
RWRUT

UTAH REGIONAL WEATHER ROUNDUP
NATIONAL WEATHER SERVICE SALT LAKE CITY UT
600 AM MDT FRI MAY 22 2015

UTZ001>011-023>025-221300-

NORTHERN UTAH

CITY           SKY/WX    TMP DP  RH WIND       PRES   REMARKS
BRIGHAM CITY   PTCLDY    49  45  85 CALM      29.90S
HILL AFB       MOCLDY    50  42  74 E12       29.91R
LOGAN          PTCLDY    47  43  86 CALM      29.91F
OGDEN          MOCLDY    51  42  71 SE8       29.89S
PROVO AIRPORT  CLOUDY    46  39  76 CALM      29.92S
SALT LAKE CITY MOCLDY    51  43  74 SE8       29.90R
VERNAL         CLOUDY    50  45  83 CALM      29.97R
WENDOVER       CLOUDY    50  46  87 CALM      29.91S
HEBER CITY     CLOUDY    39  37  93 CALM      29.97S FOG
WEST JORDAN    CLEAR     48  45  87 CALM      29.92R

$$

UTZ012>022-026-027-221300-

SOUTHERN/CENTRAL UTAH

CITY           SKY/WX    TMP DP  RH WIND       PRES   REMARKS
BLANDING       CLEAR     46  39  77 E5        30.07S
BRYCE CANYON   MOCLDY    30  25  81 SW5       30.03S WCI  25
CEDAR CITY     MOCLDY    45  32  60 CALM      29.93R
DELTA          CLOUDY    47  41  80 S3        29.91S
HANKSVILLE     MOCLDY    48  41  76 SE6       29.92S
MILFORD        MOCLDY    47  35  63 CALM      29.92S
MOAB/CYNLANDS  CLEAR     54  42  64 CALM      29.90S
PRICE          CLOUDY    51  37  58 E10       29.97R
ST GEORGE      PTSUNNY   57  27  30 CALM      29.87S
KANAB          MOCLDY    43  32  65 NE3       29.98S

$$

REGIONAL REPORTS     COLORADO/ARIZONA

CITY           SKY/WX    TMP DP  RH WIND       PRES   REMARKS
CRAIG, CO      CLOUDY    47  41  80 NE3       29.99S
GRAND JUNCTION CLOUDY    48  46  93 SE7       29.97R
RIFLE          LGT RAIN  46  42  86 NE8       30.03R
MONTROSE       CLOUDY    46  43  89 S6        30.03S
CORTEZ         CLEAR     50  37  61 S6        30.02R
PAGE, AZ       NOT AVBL
GRAND CANYON   MOCLDY    31  28  89 CALM      30.02F
KINGMAN        PTCLDY    51  31  46 E9        29.88S
FLAGSTAFF      PTCLDY    31  27  85 CALM      30.03F

$$

REGIONAL REPORTS    NEVADA/IDAHO/WYOMING

CITY           SKY/WX    TMP DP  RH WIND       PRES   REMARKS
LAS VEGAS, NV  CLOUDY    62  40  44 S16       29.77S
ELY            CLOUDY    41  36  82 W6        29.96F
ELKO           MOCLDY    47  43  86 SE3       29.93S
POCATELLO, ID  CLOUDY    49  47  93 E3        29.92S
BURLEY         CLOUDY    51  47  86 CALM      29.89S
EVANSTON, WY   CLOUDY    40  37  89 N6        29.99S
ROCK SPRINGS   CLOUDY    42  37  82 SE5       30.00S
KEMMERER       CLOUDY    37  36  93 N7        30.01S WCI  32

$$


USA.gov is the U.S. government's official web portal to all federal, state and local government web resources and services.